Location: Passau
(48.5830°N, 13.4830°E)
Time: 09:55:06
(UTC+01:00)

NOAA 19 - Pass Details

Date: 29 November 2021
Orbit: 841 x 860 km, 99.2° (Epoch: 26 January)

Event Time Altitude Azimuth Distance (km) Brightness Sun altitude
Rises 18:51:44 0° 171° (S) 3,383 8.3 -25.3°
Reaches altitude 10° 18:54:06 10° 173° (S) 2,452 7.6 -25.7°
Maximum altitude 18:59:31 68° 256° (WSW) 908 5.4 -26.6°
Drops below altitude 10° 19:04:59 10° 340° (NNW) 2,475 7.8 -27.5°
Sets 19:07:23 0° 343° (NNW) 3,416 8.5 -27.9°
